owner,sensor,date,latitude,longitude,vertical_datum,wind_speed,wind_to_direction,wind_speed_of_gust,qcFlag 
TCOON,ioos:station:TCOON:518:1,2019-06-01T00:00:00Z,29.5150,-94.5133,0.0,5.2,53.0,6.7,'11111222,11111222,11111222' 
TCOON,ioos:station:TCOON:518:1,2019-06-01T00:06:00Z,29.5150,-94.5133,0.0,4.4,44.0,5.9,'11111222,11111222,11111222' 
TCOON,ioos:station:TCOON:518:1,2019-06-01T00:12:00Z,29.5150,-94.5133,0.0,4.4,68.0,5.2,'11111222,11111222,11111222' 
TCOON,ioos:station:TCOON:518:1,2019-06-01T00:18:00Z,29.5150,-94.5133,0.0,4.2,79.0,4.8,'11111222,11111222,11111222' 
TCOON,ioos:station:TCOON:518:1,2019-06-01T00:24:00Z,29.5150,-94.5133,0.0,4.2,79.0,4.8,'11111222,11111222,11111222' 
TCOON,ioos:station:TCOON:518:1,2019-06-01T00:30:00Z,29.5150,-94.5133,0.0,2.9,81.0,4.9,'11111222,11111222,11111222' 
TCOON,ioos:station:TCOON:518:1,2019-06-01T00:36:00Z,29.5150,-94.5133,0.0,3.6,73.0,4.3,'11111222,11111222,11111222' 
TCOON,ioos:station:TCOON:518:1,2019-06-01T00:42:00Z,29.5150,-94.5133,0.0,3.7,63.0,4.4,'11111222,11111222,11111222' 
TCOON,ioos:station:TCOON:518:1,2019-06-01T00:48:00Z,29.5150,-94.5133,0.0,3.3,73.0,4.0,'11111222,11111222,11111222' 
TCOON,ioos:station:TCOON:518:1,2019-06-01T00:54:00Z,29.5150,-94.5133,0.0,3.5,80.0,4.2,'11111222,11111222,11111222' 
TCOON,ioos:station:TCOON:518:1,2019-06-01T01:00:00Z,29.5150,-94.5133,0.0,3.6,97.0,4.4,'11111222,11111222,11111222' 
TCOON,ioos:station:TCOON:518:1,2019-06-01T01:06:00Z,29.5150,-94.5133,0.0,4.2,91.0,5.0,'11111222,11111222,11111222' 
TCOON,ioos:station:TCOON:518:1,2019-06-01T01:12:00Z,29.5150,-94.5133,0.0,4.0,84.0,5.2,'11111222,11111222,11111222' 
TCOON,ioos:station:TCOON:518:1,2019-06-01T01:18:00Z,29.5150,-94.5133,0.0,3.1,104.0,3.9,'11111222,11111222,11111222' 
TCOON,ioos:station:TCOON:518:1,2019-06-01T01:24:00Z,29.5150,-94.5133,0.0,3.1,104.0,3.9,'11111222,11111222,11111222' 
TCOON,ioos:station:TCOON:518:1,2019-06-01T01:30:00Z,29.5150,-94.5133,0.0,2.5,116.0,3.2,'11111222,11111222,11111222' 
TCOON,ioos:station:TCOON:518:1,2019-06-01T01:36:00Z,29.5150,-94.5133,0.0,4.1,126.0,4.6,'11111222,11111222,11111222' 
TCOON,ioos:station:TCOON:518:1,2019-06-01T01:42:00Z,29.5150,-94.5133,0.0,4.0,117.0,4.5,'11111222,11111222,11111222' 
TCOON,ioos:station:TCOON:518:1,2019-06-01T01:48:00Z,29.5150,-94.5133,0.0,4.0,118.0,4.6,'11111222,11111222,11111222' 
TCOON,ioos:station:TCOON:518:1,2019-06-01T01:54:00Z,29.5150,-94.5133,0.0,4.2,110.0,4.7,'11111222,11111222,11111222' 
TCOON,ioos:station:TCOON:518:1,2019-06-01T02:00:00Z,29.5150,-94.5133,0.0,4.1,116.0,4.8,'11111222,11111222,11111222' 
TCOON,ioos:station:TCOON:518:1,2019-06-01T02:06:00Z,29.5150,-94.5133,0.0,4.2,103.0,4.9,'11111222,11111222,11111222' 
TCOON,ioos:station:TCOON:518:1,2019-06-01T02:12:00Z,29.5150,-94.5133,0.0,4.4,121.0,5.1,'11111222,11111222,11111222' 
TCOON,ioos:station:TCOON:518:1,2019-06-01T02:18:00Z,29.5150,-94.5133,0.0,3.8,111.0,4.3,'11111222,11111222,11111222' 
TCOON,ioos:station:TCOON:518:1,2019-06-01T02:24:00Z,29.5150,-94.5133,0.0,3.8,111.0,4.3,'11111222,11111222,11111222' 
TCOON,ioos:station:TCOON:518:1,2019-06-01T02:30:00Z,29.5150,-94.5133,0.0,3.5,55.0,4.6,'11111222,11111222,11111222' 
TCOON,ioos:station:TCOON:518:1,2019-06-01T02:36:00Z,29.5150,-94.5133,0.0,3.0,59.0,3.8,'11111222,11111222,11111222' 
TCOON,ioos:station:TCOON:518:1,2019-06-01T02:42:00Z,29.5150,-94.5133,0.0,3.3,46.0,3.7,'11111222,11111222,11111222' 
TCOON,ioos:station:TCOON:518:1,2019-06-01T02:48:00Z,29.5150,-94.5133,0.0,4.0,53.0,4.7,'11111222,11111222,11111222' 
TCOON,ioos:station:TCOON:518:1,2019-06-01T02:54:00Z,29.5150,-94.5133,0.0,4.3,58.0,5.1,'11111222,11111222,11111222' 
TCOON,ioos:station:TCOON:518:1,2019-06-01T03:00:00Z,29.5150,-94.5133,0.0,5.0,65.0,5.3,'11111222,11111222,11111222' 
TCOON,ioos:station:TCOON:518:1,2019-06-01T03:06:00Z,29.5150,-94.5133,0.0,4.2,62.0,4.8,'11111222,11111222,11111222' 
TCOON,ioos:station:TCOON:518:1,2019-06-01T03:12:00Z,29.5150,-94.5133,0.0,4.4,54.0,5.0,'11111222,11111222,11111222' 
TCOON,ioos:station:TCOON:518:1,2019-06-01T03:18:00Z,29.5150,-94.5133,0.0,4.4,52.0,4.9,'11111222,11111222,11111222' 
TCOON,ioos:station:TCOON:518:1,2019-06-01T03:24:00Z,29.5150,-94.5133,0.0,4.4,52.0,4.9,'11111222,11111222,11111222' 
TCOON,ioos:station:TCOON:518:1,2019-06-01T03:30:00Z,29.5150,-94.5133,0.0,3.2,62.0,4.5,'11111222,11111222,11111222' 
TCOON,ioos:station:TCOON:518:1,2019-06-01T03:36:00Z,29.5150,-94.5133,0.0,3.4,57.0,3.8,'11111222,11111222,11111222' 
TCOON,ioos:station:TCOON:518:1,2019-06-01T03:42:00Z,29.5150,-94.5133,0.0,3.2,56.0,3.6,'11111222,11111222,11111222' 
TCOON,ioos:station:TCOON:518:1,2019-06-01T03:48:00Z,29.5150,-94.5133,0.0,3.2,40.0,3.7,'11111222,11111222,11111222' 
TCOON,ioos:station:TCOON:518:1,2019-06-01T03:54:00Z,29.5150,-94.5133,0.0,4.3,42.0,4.8,'11111222,11111222,11111222' 
TCOON,ioos:station:TCOON:518:1,2019-06-01T04:00:00Z,29.5150,-94.5133,0.0,4.1,51.0,5.0,'11111222,11111222,11111222' 
TCOON,ioos:station:TCOON:518:1,2019-06-01T04:06:00Z,29.5150,-94.5133,0.0,3.7,54.0,4.9,'11111222,11111222,11111222' 
TCOON,ioos:station:TCOON:518:1,2019-06-01T04:12:00Z,29.5150,-94.5133,0.0,3.6,50.0,4.3,'11111222,11111222,11111222' 
TCOON,ioos:station:TCOON:518:1,2019-06-01T04:18:00Z,29.5150,-94.5133,0.0,3.6,45.0,4.1,'11111222,11111222,11111222' 
TCOON,ioos:station:TCOON:518:1,2019-06-01T04:24:00Z,29.5150,-94.5133,0.0,3.6,45.0,4.1,'11111222,11111222,11111222' 
TCOON,ioos:station:TCOON:518:1,2019-06-01T04:30:00Z,29.5150,-94.5133,0.0,3.4,51.0,4.2,'11111222,11111222,11111222' 
TCOON,ioos:station:TCOON:518:1,2019-06-01T04:36:00Z,29.5150,-94.5133,0.0,2.8,51.0,3.8,'11111222,11111222,11111222' 
TCOON,ioos:station:TCOON:518:1,2019-06-01T04:42:00Z,29.5150,-94.5133,0.0,2.9,45.0,3.4,'11111222,11111222,11111222' 
TCOON,ioos:station:TCOON:518:1,2019-06-01T04:48:00Z,29.5150,-94.5133,0.0,2.5,55.0,3.3,'11111222,11111222,11111222' 
TCOON,ioos:station:TCOON:518:1,2019-06-01T04:54:00Z,29.5150,-94.5133,0.0,1.9,39.0,2.7,'11111222,11111222,11111222' 
TCOON,ioos:station:TCOON:518:1,2019-06-01T05:00:00Z,29.5150,-94.5133,0.0,2.2,47.0,2.9,'11111222,11111222,11111222' 
TCOON,ioos:station:TCOON:518:1,2019-06-01T05:06:00Z,29.5150,-94.5133,0.0,1.8,53.0,2.7,'11111222,11111222,11111222' 
TCOON,ioos:station:TCOON:518:1,2019-06-01T05:12:00Z,29.5150,-94.5133,0.0,1.9,43.0,2.3,'11111222,11111222,11111222' 
TCOON,ioos:station:TCOON:518:1,2019-06-01T05:18:00Z,29.5150,-94.5133,0.0,2.5,34.0,2.8,'11111222,11111222,11111222' 
TCOON,ioos:station:TCOON:518:1,2019-06-01T05:24:00Z,29.5150,-94.5133,0.0,2.5,34.0,2.8,'11111222,11111222,11111222' 
TCOON,ioos:station:TCOON:518:1,2019-06-01T05:30:00Z,29.5150,-94.5133,0.0,2.6,36.0,3.0,'11111222,11111222,11111222' 
TCOON,ioos:station:TCOON:518:1,2019-06-01T05:36:00Z,29.5150,-94.5133,0.0,2.5,34.0,3.2,'11111222,11111222,11111222' 
TCOON,ioos:station:TCOON:518:1,2019-06-01T05:48:00Z,29.5150,-94.5133,0.0,2.3,51.0,2.8,'11111222,11111222,11111222' 
TCOON,ioos:station:TCOON:518:1,2019-06-01T05:54:00Z,29.5150,-94.5133,0.0,2.5,48.0,3.1,'11111222,11111222,11111222' 
TCOON,ioos:station:TCOON:518:1,2019-06-01T06:00:00Z,29.5150,-94.5133,0.0,2.4,40.0,2.8,'11111222,11111222,11111222' 
TCOON,ioos:station:TCOON:518:1,2019-06-01T06:06:00Z,29.5150,-94.5133,0.0,2.6,34.0,3.1,'11111222,11111222,11111222' 
TCOON,ioos:station:TCOON:518:1,2019-06-01T06:12:00Z,29.5150,-94.5133,0.0,2.6,32.0,3.1,'11111222,11111222,11111222' 
TCOON,ioos:station:TCOON:518:1,2019-06-01T06:18:00Z,29.5150,-94.5133,0.0,2.6,37.0,3.0,'11111222,11111222,11111222' 
TCOON,ioos:station:TCOON:518:1,2019-06-01T06:24:00Z,29.5150,-94.5133,0.0,2.6,37.0,3.0,'11111222,11111222,11111222' 
TCOON,ioos:station:TCOON:518:1,2019-06-01T06:30:00Z,29.5150,-94.5133,0.0,2.6,43.0,3.1,'11111222,11111222,11111222' 
TCOON,ioos:station:TCOON:518:1,2019-06-01T06:36:00Z,29.5150,-94.5133,0.0,2.7,44.0,3.1,'11111222,11111222,11111222' 
TCOON,ioos:station:TCOON:518:1,2019-06-01T06:42:00Z,29.5150,-94.5133,0.0,2.0,37.0,3.1,'11111222,11111222,11111222' 
TCOON,ioos:station:TCOON:518:1,2019-06-01T06:48:00Z,29.5150,-94.5133,0.0,2.3,35.0,2.9,'11111222,11111222,11111222' 
TCOON,ioos:station:TCOON:518:1,2019-06-01T06:54:00Z,29.5150,-94.5133,0.0,1.7,30.0,2.4,'11111222,11111222,11111222' 
TCOON,ioos:station:TCOON:518:1,2019-06-01T07:00:00Z,29.5150,-94.5133,0.0,1.2,26.0,1.9,'11111222,11111222,11111222' 
TCOON,ioos:station:TCOON:518:1,2019-06-01T07:06:00Z,29.5150,-94.5133,0.0,1.4,49.0,1.7,'11111222,11111222,11111222' 
TCOON,ioos:station:TCOON:518:1,2019-06-01T07:12:00Z,29.5150,-94.5133,0.0,1.6,34.0,1.8,'11111222,11111222,11111222' 
TCOON,ioos:station:TCOON:518:1,2019-06-01T07:18:00Z,29.5150,-94.5133,0.0,1.5,49.0,1.9,'11111222,11111222,11111222' 
TCOON,ioos:station:TCOON:518:1,2019-06-01T07:24:00Z,29.5150,-94.5133,0.0,1.5,49.0,1.9,'11111222,11111222,11111222' 
TCOON,ioos:station:TCOON:518:1,2019-06-01T07:30:00Z,29.5150,-94.5133,0.0,1.6,58.0,1.7,'11111222,11111222,11111222' 
TCOON,ioos:station:TCOON:518:1,2019-06-01T07:36:00Z,29.5150,-94.5133,0.0,1.6,58.0,2.0,'11111222,11111222,11111222' 
TCOON,ioos:station:TCOON:518:1,2019-06-01T07:42:00Z,29.5150,-94.5133,0.0,1.5,80.0,1.9,'11111222,11111222,11111222' 
TCOON,ioos:station:TCOON:518:1,2019-06-01T07:48:00Z,29.5150,-94.5133,0.0,1.0,59.0,1.7,'11111222,11111222,11111222' 
TCOON,ioos:station:TCOON:518:1,2019-06-01T07:54:00Z,29.5150,-94.5133,0.0,1.2,54.0,1.4,'11111222,11111222,11111222' 
TCOON,ioos:station:TCOON:518:1,2019-06-01T08:00:00Z,29.5150,-94.5133,0.0,2.7,24.0,3.3,'11111222,11111222,11111222' 
TCOON,ioos:station:TCOON:518:1,2019-06-01T08:06:00Z,29.5150,-94.5133,0.0,2.6,41.0,3.7,'11111222,11111222,11111222' 
TCOON,ioos:station:TCOON:518:1,2019-06-01T08:12:00Z,29.5150,-94.5133,0.0,2.9,35.0,3.5,'11111222,11111222,11111222' 
TCOON,ioos:station:TCOON:518:1,2019-06-01T08:18:00Z,29.5150,-94.5133,0.0,2.6,53.0,3.0,'11111222,11111222,11111222' 
TCOON,ioos:station:TCOON:518:1,2019-06-01T08:24:00Z,29.5150,-94.5133,0.0,2.6,53.0,3.0,'11111222,11111222,11111222' 
TCOON,ioos:station:TCOON:518:1,2019-06-01T08:30:00Z,29.5150,-94.5133,0.0,2.6,48.0,3.0,'11111222,11111222,11111222' 
TCOON,ioos:station:TCOON:518:1,2019-06-01T08:36:00Z,29.5150,-94.5133,0.0,2.1,49.0,2.8,'11111222,11111222,11111222' 
TCOON,ioos:station:TCOON:518:1,2019-06-01T08:42:00Z,29.5150,-94.5133,0.0,2.5,36.0,3.0,'11111222,11111222,11111222' 
TCOON,ioos:station:TCOON:518:1,2019-06-01T08:48:00Z,29.5150,-94.5133,0.0,1.9,57.0,2.9,'11111222,11111222,11111222' 
TCOON,ioos:station:TCOON:518:1,2019-06-01T08:54:00Z,29.5150,-94.5133,0.0,2.8,46.0,3.1,'11111222,11111222,11111222' 
TCOON,ioos:station:TCOON:518:1,2019-06-01T09:00:00Z,29.5150,-94.5133,0.0,2.2,48.0,3.1,'11111222,11111222,11111222' 
TCOON,ioos:station:TCOON:518:1,2019-06-01T09:06:00Z,29.5150,-94.5133,0.0,2.5,39.0,2.7,'11111222,11111222,11111222' 
TCOON,ioos:station:TCOON:518:1,2019-06-01T09:12:00Z,29.5150,-94.5133,0.0,2.2,36.0,2.6,'11111222,11111222,11111222' 
TCOON,ioos:station:TCOON:518:1,2019-06-01T09:18:00Z,29.5150,-94.5133,0.0,2.0,41.0,2.9,'11111222,11111222,11111222' 
TCOON,ioos:station:TCOON:518:1,2019-06-01T09:24:00Z,29.5150,-94.5133,0.0,2.0,41.0,2.9,'11111222,11111222,11111222' 
TCOON,ioos:station:TCOON:518:1,2019-06-01T09:30:00Z,29.5150,-94.5133,0.0,2.0,50.0,2.6,'11111222,11111222,11111222' 
TCOON,ioos:station:TCOON:518:1,2019-06-01T09:36:00Z,29.5150,-94.5133,0.0,2.0,59.0,2.5,'11111222,11111222,11111222' 
TCOON,ioos:station:TCOON:518:1,2019-06-01T09:42:00Z,29.5150,-94.5133,0.0,2.3,57.0,2.7,'11111222,11111222,11111222' 
TCOON,ioos:station:TCOON:518:1,2019-06-01T09:48:00Z,29.5150,-94.5133,0.0,2.1,56.0,2.5,'11111222,11111222,11111222' 
TCOON,ioos:station:TCOON:518:1,2019-06-01T09:54:00Z,29.5150,-94.5133,0.0,1.8,57.0,2.5,'11111222,11111222,11111222' 
TCOON,ioos:station:TCOON:518:1,2019-06-01T10:00:00Z,29.5150,-94.5133,0.0,1.9,68.0,2.2,'11111222,11111222,11111222' 
TCOON,ioos:station:TCOON:518:1,2019-06-01T10:06:00Z,29.5150,-94.5133,0.0,1.7,78.0,2.5,'11111222,11111222,11111222' 
TCOON,ioos:station:TCOON:518:1,2019-06-01T10:12:00Z,29.5150,-94.5133,0.0,1.6,71.0,1.9,'11111222,11111222,11111222' 
TCOON,ioos:station:TCOON:518:1,2019-06-01T10:18:00Z,29.5150,-94.5133,0.0,1.8,63.0,2.1,'11111222,11111222,11111222' 
TCOON,ioos:station:TCOON:518:1,2019-06-01T10:24:00Z,29.5150,-94.5133,0.0,1.8,63.0,2.1,'11111222,11111222,11111222' 
TCOON,ioos:station:TCOON:518:1,2019-06-01T10:30:00Z,29.5150,-94.5133,0.0,1.4,66.0,1.9,'11111222,11111222,11111222' 
TCOON,ioos:station:TCOON:518:1,2019-06-01T10:36:00Z,29.5150,-94.5133,0.0,1.3,78.0,1.7,'11111222,11111222,11111222' 
TCOON,ioos:station:TCOON:518:1,2019-06-01T10:42:00Z,29.5150,-94.5133,0.0,1.4,74.0,1.5,'11111222,11111222,11111222' 
TCOON,ioos:station:TCOON:518:1,2019-06-01T10:48:00Z,29.5150,-94.5133,0.0,1.7,64.0,2.0,'11111222,11111222,11111222' 
TCOON,ioos:station:TCOON:518:1,2019-06-01T10:54:00Z,29.5150,-94.5133,0.0,2.0,57.0,2.3,'11111222,11111222,11111222' 
TCOON,ioos:station:TCOON:518:1,2019-06-01T11:00:00Z,29.5150,-94.5133,0.0,2.0,49.0,2.5,'11111222,11111222,11111222' 
TCOON,ioos:station:TCOON:518:1,2019-06-01T11:06:00Z,29.5150,-94.5133,0.0,3.0,34.0,3.4,'11111222,11111222,11111222' 
TCOON,ioos:station:TCOON:518:1,2019-06-01T11:12:00Z,29.5150,-94.5133,0.0,2.3,35.0,3.3,'11111222,11111222,11111222' 
TCOON,ioos:station:TCOON:518:1,2019-06-01T11:18:00Z,29.5150,-94.5133,0.0,3.1,45.0,3.6,'11111222,11111222,11111222' 
TCOON,ioos:station:TCOON:518:1,2019-06-01T11:24:00Z,29.5150,-94.5133,0.0,3.1,45.0,3.6,'11111222,11111222,11111222' 
TCOON,ioos:station:TCOON:518:1,2019-06-01T11:30:00Z,29.5150,-94.5133,0.0,3.2,42.0,3.5,'11111222,11111222,11111222' 
TCOON,ioos:station:TCOON:518:1,2019-06-01T11:36:00Z,29.5150,-94.5133,0.0,3.9,42.0,4.3,'11111222,11111222,11111222' 
TCOON,ioos:station:TCOON:518:1,2019-06-01T11:42:00Z,29.5150,-94.5133,0.0,4.1,41.0,4.7,'11111222,11111222,11111222' 
TCOON,ioos:station:TCOON:518:1,2019-06-01T11:48:00Z,29.5150,-94.5133,0.0,4.1,38.0,4.6,'11111222,11111222,11111222' 
TCOON,ioos:station:TCOON:518:1,2019-06-01T11:54:00Z,29.5150,-94.5133,0.0,4.2,35.0,4.7,'11111222,11111222,11111222' 
TCOON,ioos:station:TCOON:518:1,2019-06-01T12:00:00Z,29.5150,-94.5133,0.0,3.8,48.0,4.3,'11111222,11111222,11111222' 
TCOON,ioos:station:TCOON:518:1,2019-06-01T12:06:00Z,29.5150,-94.5133,0.0,3.5,56.0,4.1,'11111222,11111222,11111222' 
TCOON,ioos:station:TCOON:518:1,2019-06-01T12:12:00Z,29.5150,-94.5133,0.0,3.4,45.0,3.8,'11111222,11111222,11111222' 
TCOON,ioos:station:TCOON:518:1,2019-06-01T12:18:00Z,29.5150,-94.5133,0.0,3.8,35.0,4.2,'11111222,11111222,11111222' 
TCOON,ioos:station:TCOON:518:1,2019-06-01T12:24:00Z,29.5150,-94.5133,0.0,3.8,35.0,4.2,'11111222,11111222,11111222' 
TCOON,ioos:station:TCOON:518:1,2019-06-01T12:30:00Z,29.5150,-94.5133,0.0,4.0,37.0,4.4,'11111222,11111222,11111222' 
TCOON,ioos:station:TCOON:518:1,2019-06-01T12:36:00Z,29.5150,-94.5133,0.0,3.7,36.0,4.3,'11111222,11111222,11111222' 
TCOON,ioos:station:TCOON:518:1,2019-06-01T12:42:00Z,29.5150,-94.5133,0.0,3.5,41.0,4.1,'11111222,11111222,11111222' 
TCOON,ioos:station:TCOON:518:1,2019-06-01T12:48:00Z,29.5150,-94.5133,0.0,3.2,43.0,3.8,'11111222,11111222,11111222' 
TCOON,ioos:station:TCOON:518:1,2019-06-01T12:54:00Z,29.5150,-94.5133,0.0,3.4,50.0,3.7,'11111222,11111222,11111222' 
TCOON,ioos:station:TCOON:518:1,2019-06-01T13:00:00Z,29.5150,-94.5133,0.0,3.6,43.0,3.9,'11111222,11111222,11111222' 
TCOON,ioos:station:TCOON:518:1,2019-06-01T13:06:00Z,29.5150,-94.5133,0.0,3.8,40.0,4.4,'11111222,11111222,11111222' 
TCOON,ioos:station:TCOON:518:1,2019-06-01T13:12:00Z,29.5150,-94.5133,0.0,3.8,44.0,4.2,'11111222,11111222,11111222' 
TCOON,ioos:station:TCOON:518:1,2019-06-01T13:18:00Z,29.5150,-94.5133,0.0,3.8,37.0,4.5,'11111222,11111222,11111222' 
TCOON,ioos:station:TCOON:518:1,2019-06-01T13:24:00Z,29.5150,-94.5133,0.0,3.8,37.0,4.5,'11111222,11111222,11111222' 
TCOON,ioos:station:TCOON:518:1,2019-06-01T13:30:00Z,29.5150,-94.5133,0.0,3.4,45.0,3.9,'11111222,11111222,11111222' 
TCOON,ioos:station:TCOON:518:1,2019-06-01T13:36:00Z,29.5150,-94.5133,0.0,3.5,41.0,4.2,'11111222,11111222,11111222' 
TCOON,ioos:station:TCOON:518:1,2019-06-01T13:42:00Z,29.5150,-94.5133,0.0,3.3,40.0,3.8,'11111222,11111222,11111222' 
TCOON,ioos:station:TCOON:518:1,2019-06-01T13:48:00Z,29.5150,-94.5133,0.0,2.9,46.0,3.6,'11111222,11111222,11111222' 
TCOON,ioos:station:TCOON:518:1,2019-06-01T13:54:00Z,29.5150,-94.5133,0.0,2.9,38.0,3.5,'11111222,11111222,11111222' 
TCOON,ioos:station:TCOON:518:1,2019-06-01T14:00:00Z,29.5150,-94.5133,0.0,2.7,41.0,3.1,'11111222,11111222,11111222' 
TCOON,ioos:station:TCOON:518:1,2019-06-01T14:06:00Z,29.5150,-94.5133,0.0,1.8,46.0,2.8,'11111222,11111222,11111222' 
TCOON,ioos:station:TCOON:518:1,2019-06-01T14:12:00Z,29.5150,-94.5133,0.0,1.7,54.0,2.2,'11111222,11111222,11111222' 
TCOON,ioos:station:TCOON:518:1,2019-06-01T14:18:00Z,29.5150,-94.5133,0.0,1.1,61.0,1.7,'11111222,11111222,11111222' 
TCOON,ioos:station:TCOON:518:1,2019-06-01T14:24:00Z,29.5150,-94.5133,0.0,1.1,61.0,1.7,'11111222,11111222,11111222' 
TCOON,ioos:station:TCOON:518:1,2019-06-01T14:30:00Z,29.5150,-94.5133,0.0,1.1,66.0,1.4,'11111222,11111222,11111222' 
TCOON,ioos:station:TCOON:518:1,2019-06-01T14:36:00Z,29.5150,-94.5133,0.0,1.4,59.0,1.7,'11111222,11111222,11111222' 
TCOON,ioos:station:TCOON:518:1,2019-06-01T14:42:00Z,29.5150,-94.5133,0.0,1.3,44.0,1.7,'11111222,11111222,11111222' 
TCOON,ioos:station:TCOON:518:1,2019-06-01T14:48:00Z,29.5150,-94.5133,0.0,1.1,68.0,1.6,'11111222,11111222,11111222' 
TCOON,ioos:station:TCOON:518:1,2019-06-01T14:54:00Z,29.5150,-94.5133,0.0,0.7,71.0,1.3,'11111222,11111222,11111222' 
TCOON,ioos:station:TCOON:518:1,2019-06-01T15:00:00Z,29.5150,-94.5133,0.0,0.8,68.0,1.0,'11111222,11111222,11111222' 
TCOON,ioos:station:TCOON:518:1,2019-06-01T15:06:00Z,29.5150,-94.5133,0.0,0.6,81.0,0.8,'11111222,11111222,11111222' 
TCOON,ioos:station:TCOON:518:1,2019-06-01T15:12:00Z,29.5150,-94.5133,0.0,0.9,70.0,1.2,'11111222,11111222,11111222' 
TCOON,ioos:station:TCOON:518:1,2019-06-01T15:18:00Z,29.5150,-94.5133,0.0,1.1,57.0,1.4,'11111222,11111222,11111222' 
TCOON,ioos:station:TCOON:518:1,2019-06-01T15:24:00Z,29.5150,-94.5133,0.0,1.1,57.0,1.4,'11111222,11111222,11111222' 
TCOON,ioos:station:TCOON:518:1,2019-06-01T15:30:00Z,29.5150,-94.5133,0.0,1.0,53.0,1.4,'11111222,11111222,11111222' 
TCOON,ioos:station:TCOON:518:1,2019-06-01T15:36:00Z,29.5150,-94.5133,0.0,0.6,38.0,1.6,'11111222,11111222,11111222' 
TCOON,ioos:station:TCOON:518:1,2019-06-01T15:42:00Z,29.5150,-94.5133,0.0,0.9,43.0,1.1,'11111222,11111222,11111222' 
TCOON,ioos:station:TCOON:518:1,2019-06-01T15:48:00Z,29.5150,-94.5133,0.0,0.9,35.0,1.5,'11111222,11111222,11111222' 
TCOON,ioos:station:TCOON:518:1,2019-06-01T15:54:00Z,29.5150,-94.5133,0.0,0.0,41.0,0.7,'11111222,11111222,11111222' 
TCOON,ioos:station:TCOON:518:1,2019-06-01T16:00:00Z,29.5150,-94.5133,0.0,0.1,303.0,0.3,'11111222,11111222,11111222' 
TCOON,ioos:station:TCOON:518:1,2019-06-01T16:06:00Z,29.5150,-94.5133,0.0,0.1,3.0,0.5,'11111222,11111222,11111222' 
TCOON,ioos:station:TCOON:518:1,2019-06-01T16:12:00Z,29.5150,-94.5133,0.0,0.3,126.0,0.7,'11111222,11111222,11111222' 
TCOON,ioos:station:TCOON:518:1,2019-06-01T16:18:00Z,29.5150,-94.5133,0.0,1.3,125.0,3.0,'11111222,11111222,11111222' 
TCOON,ioos:station:TCOON:518:1,2019-06-01T16:24:00Z,29.5150,-94.5133,0.0,1.3,125.0,3.0,'11111222,11111222,11111222' 
TCOON,ioos:station:TCOON:518:1,2019-06-01T16:30:00Z,29.5150,-94.5133,0.0,2.9,153.0,3.6,'11111222,11111222,11111222' 
TCOON,ioos:station:TCOON:518:1,2019-06-01T16:36:00Z,29.5150,-94.5133,0.0,3.6,156.0,4.2,'11111222,11111222,11111222' 
TCOON,ioos:station:TCOON:518:1,2019-06-01T16:42:00Z,29.5150,-94.5133,0.0,3.3,147.0,4.5,'11111222,11111222,11111222' 
TCOON,ioos:station:TCOON:518:1,2019-06-01T16:48:00Z,29.5150,-94.5133,0.0,3.1,157.0,4.1,'11111222,11111222,11111222' 
TCOON,ioos:station:TCOON:518:1,2019-06-01T16:54:00Z,29.5150,-94.5133,0.0,4.3,173.0,5.3,'11111222,11111222,11111222' 
TCOON,ioos:station:TCOON:518:1,2019-06-01T17:00:00Z,29.5150,-94.5133,0.0,3.9,169.0,5.2,'11111222,11111222,11111222' 
TCOON,ioos:station:TCOON:518:1,2019-06-01T17:06:00Z,29.5150,-94.5133,0.0,3.4,161.0,4.6,'11111222,11111222,11111222' 
TCOON,ioos:station:TCOON:518:1,2019-06-01T17:12:00Z,29.5150,-94.5133,0.0,3.2,169.0,4.8,'11111222,11111222,11111222' 
TCOON,ioos:station:TCOON:518:1,2019-06-01T17:18:00Z,29.5150,-94.5133,0.0,3.5,165.0,4.8,'11111222,11111222,11111222' 
TCOON,ioos:station:TCOON:518:1,2019-06-01T17:24:00Z,29.5150,-94.5133,0.0,3.5,165.0,4.8,'11111222,11111222,11111222' 
TCOON,ioos:station:TCOON:518:1,2019-06-01T17:30:00Z,29.5150,-94.5133,0.0,3.7,175.0,4.9,'11111222,11111222,11111222' 
TCOON,ioos:station:TCOON:518:1,2019-06-01T17:36:00Z,29.5150,-94.5133,0.0,3.7,186.0,5.2,'11111222,11111222,11111222' 
TCOON,ioos:station:TCOON:518:1,2019-06-01T17:42:00Z,29.5150,-94.5133,0.0,2.1,196.0,5.4,'11111222,11111222,11111222' 
TCOON,ioos:station:TCOON:518:1,2019-06-01T17:48:00Z,29.5150,-94.5133,0.0,3.5,185.0,4.6,'11111222,11111222,11111222' 
TCOON,ioos:station:TCOON:518:1,2019-06-01T17:54:00Z,29.5150,-94.5133,0.0,3.5,172.0,4.9,'11111222,11111222,11111222' 
TCOON,ioos:station:TCOON:518:1,2019-06-01T18:00:00Z,29.5150,-94.5133,0.0,3.0,180.0,4.2,'11111222,11111222,11111222' 
TCOON,ioos:station:TCOON:518:1,2019-06-01T18:06:00Z,29.5150,-94.5133,0.0,2.8,195.0,3.9,'11111222,11111222,11111222' 
TCOON,ioos:station:TCOON:518:1,2019-06-01T18:12:00Z,29.5150,-94.5133,0.0,3.2,171.0,4.6,'11111222,11111222,11111222' 
TCOON,ioos:station:TCOON:518:1,2019-06-01T18:18:00Z,29.5150,-94.5133,0.0,3.7,177.0,5.0,'11111222,11111222,11111222' 
TCOON,ioos:station:TCOON:518:1,2019-06-01T18:24:00Z,29.5150,-94.5133,0.0,3.7,177.0,5.0,'11111222,11111222,11111222' 
TCOON,ioos:station:TCOON:518:1,2019-06-01T18:30:00Z,29.5150,-94.5133,0.0,2.8,175.0,4.5,'11111222,11111222,11111222' 
TCOON,ioos:station:TCOON:518:1,2019-06-01T18:36:00Z,29.5150,-94.5133,0.0,3.9,177.0,5.2,'11111222,11111222,11111222' 
TCOON,ioos:station:TCOON:518:1,2019-06-01T18:42:00Z,29.5150,-94.5133,0.0,3.8,168.0,4.8,'11111222,11111222,11111222' 
TCOON,ioos:station:TCOON:518:1,2019-06-01T18:48:00Z,29.5150,-94.5133,0.0,4.3,175.0,5.5,'11111222,11111222,11111222' 
TCOON,ioos:station:TCOON:518:1,2019-06-01T18:54:00Z,29.5150,-94.5133,0.0,2.8,180.0,4.4,'11111222,11111222,11111222' 
TCOON,ioos:station:TCOON:518:1,2019-06-01T19:00:00Z,29.5150,-94.5133,0.0,3.8,170.0,4.9,'11111222,11111222,11111222' 
TCOON,ioos:station:TCOON:518:1,2019-06-01T19:06:00Z,29.5150,-94.5133,0.0,2.8,188.0,4.3,'11111222,11111222,11111222' 
TCOON,ioos:station:TCOON:518:1,2019-06-01T19:12:00Z,29.5150,-94.5133,0.0,3.1,183.0,4.4,'11111222,11111222,11111222' 
TCOON,ioos:station:TCOON:518:1,2019-06-01T19:18:00Z,29.5150,-94.5133,0.0,3.6,166.0,4.3,'11111222,11111222,11111222' 
TCOON,ioos:station:TCOON:518:1,2019-06-01T19:24:00Z,29.5150,-94.5133,0.0,3.6,166.0,4.3,'11111222,11111222,11111222' 
TCOON,ioos:station:TCOON:518:1,2019-06-01T19:30:00Z,29.5150,-94.5133,0.0,2.3,191.0,4.5,'11111222,11111222,11111222' 
TCOON,ioos:station:TCOON:518:1,2019-06-01T19:36:00Z,29.5150,-94.5133,0.0,3.9,177.0,4.8,'11111222,11111222,11111222' 
TCOON,ioos:station:TCOON:518:1,2019-06-01T19:42:00Z,29.5150,-94.5133,0.0,3.8,179.0,5.6,'11111222,11111222,11111222' 
TCOON,ioos:station:TCOON:518:1,2019-06-01T19:48:00Z,29.5150,-94.5133,0.0,2.7,194.0,4.4,'11111222,11111222,11111222' 
TCOON,ioos:station:TCOON:518:1,2019-06-01T19:54:00Z,29.5150,-94.5133,0.0,3.2,186.0,4.7,'11111222,11111222,11111222' 
TCOON,ioos:station:TCOON:518:1,2019-06-01T20:00:00Z,29.5150,-94.5133,0.0,3.9,180.0,5.7,'11111222,11111222,11111222' 
TCOON,ioos:station:TCOON:518:1,2019-06-01T20:06:00Z,29.5150,-94.5133,0.0,3.5,177.0,5.1,'11111222,11111222,11111222' 
TCOON,ioos:station:TCOON:518:1,2019-06-01T20:12:00Z,29.5150,-94.5133,0.0,3.4,175.0,5.1,'11111222,11111222,11111222' 
TCOON,ioos:station:TCOON:518:1,2019-06-01T20:18:00Z,29.5150,-94.5133,0.0,3.9,169.0,4.8,'11111222,11111222,11111222' 
TCOON,ioos:station:TCOON:518:1,2019-06-01T20:24:00Z,29.5150,-94.5133,0.0,3.9,169.0,4.8,'11111222,11111222,11111222' 
TCOON,ioos:station:TCOON:518:1,2019-06-01T20:30:00Z,29.5150,-94.5133,0.0,3.8,178.0,5.0,'11111222,11111222,11111222' 